SCP
0 0 0 0 0 0 0 0 0 0 0 0 0 0 0 0 0 0 0 0 0 0 0 0 0 0 0 0 0 0 0 0 0 0 0 0 0 0 0 0 0 0 0
0 0 0 0 0 0 0 0 0 0 0 0 0 0 0 0 0 0 0 0 0 0 0 0 0 0 0 0 0 0 0 0 0 0 0 0 0 0 0 0 0 0 0
0 0 0 0 0 0 0 0 0 0 0 0 0 0 0 0 0 0 0 0 0 0 0 0 0 0 0 0 0 0 0 0 0 0 0 0 0 0 0 0 0 0 0
0 0 0 0 0 0 0 0 0 0 0 0 0 0 0 0 0 0 0 0 0 0 0 0 0 0 0 0 0 0 0 0 0 0 0 0 0 0 0 0 0 0 0
0 0 0 0 0 0 0 0 0 0 0 0 0 0 0 0 0 0 0 0 0 0 0 0 0 0 0 0 0 0 0 0 0 0 0 0 0 0 0 0 0 0 0
0 0 0 0 0 0 0 0 0 0 0 0 0 0 0 0 0 0 0 0 0 0 0 0 0 0 0 0 0 0 0 0 0 0 0 0 0 0 0 0 0 0 0
0 0 0 1 1 0 0 0 0 0 0 0 0 0 0 0 0 0 0 0 0 0 0 0 0 0 0 0 0 0 0 0 0 0 0 0 0 0 0 0 0 0 0
0 0 0 1 1 1 1 0 0 0 0 0 0 0 0 0 0 0 0 0 0 0 0 0 0 0 0 0 0 0 0 -0 -0 -0 -0 0 0 0 0 0 0 0 0
0 0 0 1 1 1 1 0 0 0 0 0 0 0 0 0 0 0 0 0 0 0 0 0 0 0 0 0 0 0 0 -0 -0 -0 -0 -0 0 0 0 0 0 0 0
0 0 0 0 0 0 0 0 0 0 0 0 0 0 0 0 0 0 0 0 0 0 0 0 0 0 0 0 0 0 0 -0 -0 -0 -0 -0 0 0 0 0 0 0 0
0 0 0 0 0 0 0 0 0 0 0 0 0 0 0 0 0 0 0 0 0 0 0 0 0 0 0 0 0 0 0 0 0 0 -0 -0 -0 0 0 1 1 1 1
0 0 0 0 0 0 0 0 0 0 0 0 0 0 0 0 0 0 0 0 0 0 0 0 0 0 0 0 0 0 0 0 0 0 0 0 -0 0 0 1 1 1 1
1 0 0 0 0 0 0 0 0 0 0 0 0 0 0 0 0 0 0 0 0 0 0 0 1 1 1 1 1 0 0 0 0 0 0 0 -0 0 0 1 1 1 1
1 1 0 0 0 0 0 0 0 0 0 0 0 0 0 0 0 0 0 0 0 0 0 0 0 0 1 1 1 0 0 0 0 0 0 0 0 0 0 1 1 1 1
1 1 1 1 1 1 1 1 0 0 0 0 0 0 0 0 0 0 0 0 0 0 0 0 0 0 0 0 0 0 0 0 0 1 0 0 0 0 0 1 1 1 1
2 1 1 1 1 1 1 1 1 1 1 1 1 1 1 1 1 0 0 0 0 0 0 0 0 0 0 0 0 0 0 0 0 0 0 0 0 0 1 1 1 1 1
2 2 2 2 2 2 2 2 1 1 1 1 1 1 1 1 1 1 0 0 0 0 0 0 0 0 0 0 0 0 0 0 0 0 0 0 0 1 1 1 1 1 1
2 2 2 2 2 2 2 2 2 1 1 1 1 1 1 1 1 1 0 0 0 0 0 0 0 0 0 0 0 0 0 0 0 0 0 0 0 1 1 1 1 1 1
2 2 3 3 3 3 2 2 2 1 1 1 1 1 1 1 1 0 0 0 0 0 0 0 0 0 0 0 0 0 0 0 0 0 0 0 0 0 0 0 1 1 1
2 2 2 3 3 2 2 2 1 1 1 1 1 1 1 0 0 0 0 0 0 0 0 0 0 0 0 0 0 0 0 0 0 0 0 0 0 0 0 0 0 0 1
2 2 2 2 2 2 2 1 1 1 0 0 0 0 0 0 0 0 0 0 0 0 0 0 0 0 0 0 0 0 0 0 0 0 0 0 0 0 0 0 0 0 0
1 1 1 1 1 1 1 1 0 0 0 0 0 0 0 0 0 0 0 0 0 0 0 0 0 0 0 0 0 0 0 0 0 0 0 0 0 0 0 0 0 0 0
1 1 1 0 0 0 0 0 0 0 0 0 0 0 0 0 0 0 0 0 0 0 0 0 0 0 0 0 0 0 0 0 0 0 0 0 0 0 0 0 0 0 0
0 0 0 0 0 0 0 0 0 0 0 0 0 0 0 0 0 0 0 0 0 0 0 0 0 0 0 0 0 0 0 0 0 0 0 0 0 0 0 0 0 0 0
0 0 0 0 0 0 0 0 0 0 0 0 0 0 0 0 0 0 0 0 0 0 0 0 0 0 0 0 0 0 0 0 0 0 0 0 0 0 0 0 0 0 0
0 0 0 0 0 0 0 0 0 0 0 0 0 0 0 0 0 0 0 0 0 0 0 0 0 0 0 0 0 0 0 0 0 0 0 0 0 0 0 0 0 0 0
Wind_Speed
11 12 19 19 19 18 17 17 16 16 16 16 16 16 16 16 16 16 15 15 14 13 13 12 12 12 12 12 13 13 13 13 13 13 14 13 12 11 11 13 13 10 14
15 15 20 20 20 19 18 17 16 16 16 16 15 15 15 15 15 14 14 14 13 13 12 12 12 11 11 11 11 12 12 12 12 12 12 11 11 10 10 13 12 8 13
18 14 18 20 20 19 18 17 17 16 16 15 15 15 14 14 14 13 13 13 12 12 11 11 11 11 10 10 10 10 10 9 9 10 10 5 6 10 11 14 13 13 12
18 13 15 21 20 19 18 17 17 16 16 15 15 14 14 13 13 13 12 12 12 11 11 10 10 10 9 9 8 8 8 8 8 8 5 4 5 10 12 13 13 12 12
15 11 16 23 21 20 18 17 16 16 16 15 15 14 14 13 13 12 12 11 11 11 10 10 9 9 9 8 8 7 7 7 7 6 3 4 4 10 12 13 13 13 12
13 10 16 22 21 20 19 18 17 16 16 15 15 14 13 13 12 12 11 11 11 10 10 10 9 9 9 8 8 7 7 7 6 3 3 4 5 11 14 14 14 14 13
13 10 14 21 21 20 19 18 17 16 16 15 15 14 13 13 12 12 11 11 10 10 10 10 10 10 10 9 9 9 8 8 5 3 3 4 6 13 16 16 15 15 14
17 13 13 21 21 20 19 18 17 17 16 16 15 15 14 13 12 12 12 11 11 11 11 11 11 11 11 11 10 10 10 9 7 5 4 5 9 15 17 17 16 16 15
15 13 11 12 16 19 19 18 18 17 16 16 16 15 14 14 13 13 12 12 12 12 12 13 13 13 12 12 12 12 12 12 7 4 6 4 9 16 19 18 17 17 16
13 12 11 10 9 10 12 18 18 17 17 16 16 16 15 14 14 14 12 13 14 14 14 14 14 14 13 13 13 13 14 12 6 6 5 6 9 15 19 19 18 18 17
12 10 10 11 10 9 8 14 15 16 16 16 14 16 14 7 7 8 12 15 16 16 16 16 16 15 14 14 15 15 13 5 5 6 5 10 12 14 18 19 18 18 17
15 13 11 12 11 10 10 8 6 8 8 8 6 8 6 5 6 8 10 16 17 18 18 17 17 15 12 6 10 13 6 7 6 6 7 13 14 15 17 19 19 18 18
17 16 14 13 12 11 8 7 5 5 5 6 8 8 5 5 4 6 4 7 9 12 9 9 10 7 6 5 5 5 7 7 5 6 7 13 14 16 17 19 20 19 18
16 16 15 14 12 12 9 7 7 6 5 6 8 8 6 4 5 4 3 3 3 3 4 4 4 5 7 8 7 7 8 6 6 5 7 14 14 14 16 18 19 19 18
14 14 14 13 12 11 9 7 7 7 7 7 6 7 7 5 4 3 2 2 2 2 3 3 4 5 6 6 7 8 8 8 8 7 6 13 14 13 14 16 18 18 17
12 12 12 12 10 9 8 7 6 6 6 6 6 7 8 5 4 3 2 2 2 2 2 3 4 4 4 4 5 7 7 6 7 7 6 8 12 12 14 16 18 18 18
8 9 9 10 8 8 7 7 5 4 4 4 4 6 6 6 5 4 2 1 1 1 1 1 2 1 2 3 4 5 5 5 6 6 6 5 6 11 14 16 17 18 18
3 4 6 6 5 4 4 4 3 3 3 3 4 4 6 6 5 4 2 1 1 0 0 0 1 1 2 2 3 3 4 4 5 6 5 5 5 6 10 17 19 19 19
4 2 2 2 4 4 3 2 2 2 2 2 3 3 4 5 5 4 2 2 1 1 1 1 0 1 2 2 3 4 4 4 5 6 6 7 6 6 6 11 18 19 19
9 8 4 3 2 0 1 1 2 1 1 2 3 3 4 4 5 4 3 2 2 2 1 1 1 1 1 2 3 4 4 5 4 5 6 6 6 7 7 8 8 11 17
10 7 5 6 5 4 1 1 1 1 1 1 2 4 5 4 4 4 3 3 3 2 1 0 0 1 1 1 2 3 4 4 4 4 4 4 5 6 6 7 6 6 6
7 5 3 2 3 3 2 1 1 1 1 1 2 3 4 5 5 4 4 3 3 2 1 1 1 0 1 1 1 1 4 5 3 3 2 2 3 3 5 7 7 7 7
5 3 2 1 1 4 3 1 1 1 1 1 1 1 3 5 5 5 6 5 4 3 2 1 1 2 1 1 0 1 0 2 4 4 3 2 2 3 4 4 6 7 8
6 5 4 2 2 1 1 1 0 1 1 2 1 1 2 3 4 5 6 5 5 3 3 2 2 2 2 1 1 1 2 3 2 4 4 3 3 4 4 4 4 5 6
9 8 7 7 7 6 5 3 2 2 0 0 0 1 1 2 2 3 4 5 5 4 4 4 3 2 2 2 2 2 2 2 3 3 4 4 4 3 3 4 3 3 4
9 8 7 8 8 8 8 7 5 4 3 3 2 1 1 2 2 2 2 3 4 3 4 4 4 4 3 3 3 3 3 3 3 3 4 4 4 4 4 3 3 3 2
Wind_Direction
157 161 155 150 147 145 142 139 135 132 130 127 124 121 119 119 120 121 122 124 125 125 125 123 121 121 120 119 120 120 121 121 122 123 122 122 120 119 124 126 120 116 117
153 158 154 150 149 148 146 143 141 139 137 135 131 128 126 125 125 125 126 127 128 128 128 128 128 127 127 127 127 127 128 129 130 130 128 126 124 119 128 136 126 129 125
148 154 152 150 150 150 149 148 147 145 143 141 139 136 134 133 133 133 132 133 133 134 134 135 136 136 135 136 136 137 136 137 139 138 135 132 132 127 123 134 133 133 132
147 150 151 151 151 152 152 152 152 150 148 147 145 144 142 142 141 141 140 141 142 143 144 146 146 147 148 149 150 151 151 153 156 156 153 162 163 148 141 140 142 142 140
144 148 155 152 153 154 155 156 156 155 154 153 152 151 151 151 150 150 150 151 152 153 155 158 159 160 163 166 169 172 174 177 182 185 188 189 187 168 161 156 154 153 152
144 149 156 154 156 158 159 160 160 160 159 159 159 159 160 160 160 161 162 163 164 166 169 171 174 176 180 185 189 195 201 204 205 210 225 212 192 185 177 171 166 164 165
147 153 158 158 159 161 163 164 165 165 165 165 166 167 169 170 171 173 175 177 179 182 184 187 190 192 195 200 206 213 220 227 223 224 227 216 199 193 187 182 176 174 175
152 156 160 162 163 165 167 169 170 171 172 173 174 176 179 181 184 186 188 191 194 197 199 201 204 205 207 211 217 224 231 239 245 237 226 211 208 200 195 189 185 182 183
155 158 161 165 167 170 172 174 175 177 179 181 183 185 189 192 195 198 201 204 207 210 212 213 215 217 217 218 222 227 234 241 248 258 261 238 217 207 202 196 192 190 189
158 164 164 165 167 171 175 180 182 184 187 189 191 194 197 201 204 209 212 216 218 220 221 222 224 225 225 225 227 231 236 242 241 246 254 256 245 220 211 204 199 197 196
164 172 171 170 171 173 177 187 187 191 194 196 199 202 203 208 211 217 224 225 227 229 229 228 228 230 230 232 233 234 238 233 228 240 243 252 250 235 222 213 206 203 201
173 180 179 178 177 176 185 186 188 195 198 198 199 206 204 204 213 223 232 235 235 235 234 232 231 231 232 232 236 237 233 229 231 239 241 245 249 244 232 221 212 208 207
177 180 183 183 180 181 188 180 188 197 196 203 205 208 208 210 218 229 232 244 241 239 236 236 233 227 224 223 225 225 227 230 232 238 242 245 249 251 243 229 218 213 211
179 184 182 182 182 188 190 184 188 194 197 202 210 209 206 211 216 219 223 228 224 222 220 225 223 224 226 227 226 229 232 229 231 230 239 247 250 256 252 237 224 218 216
181 184 183 182 184 188 189 188 189 197 200 200 203 207 203 205 209 209 211 211 209 206 213 223 226 232 232 234 234 235 237 235 232 228 237 244 243 244 247 240 231 225 222
182 182 178 180 183 183 183 183 185 193 195 194 197 198 194 192 189 186 189 189 201 203 209 216 226 230 235 235 237 237 236 235 233 229 229 242 246 238 229 230 235 231 227
184 174 176 179 178 175 181 180 174 177 173 178 183 180 173 173 173 168 162 175 218 216 217 237 262 253 251 246 247 246 241 232 233 232 229 227 233 230 226 225 228 233 234
113 147 170 179 175 183 187 178 164 149 153 168 169 163 165 167 159 146 144 164 196 152 6 296 281 297 285 275 265 260 252 245 243 239 231 227 221 225 226 230 230 232 235
69 94 137 151 180 197 205 170 116 115 139 151 146 145 156 153 143 136 138 144 124 87 40 334 339 242 275 286 274 262 253 249 250 252 242 232 223 216 218 230 233 233 235
49 37 28 26 348 324 127 81 71 78 117 142 135 139 131 135 137 130 127 126 110 96 55 11 302 282 256 273 289 289 267 255 248 246 248 243 230 225 222 227 232 237 238
69 65 42 39 29 19 26 131 154 193 192 156 146 154 146 145 143 136 135 126 121 123 144 317 334 334 306 323 346 319 300 277 264 257 254 252 243 237 230 227 226 229 237
83 95 100 77 73 56 329 294 228 223 218 189 165 165 160 157 165 158 155 154 150 136 91 64 86 54 307 12 54 335 333 335 332 302 284 263 262 253 247 241 229 225 227
72 85 83 72 143 163 190 266 28 49 25 39 149 189 189 177 178 173 172 166 168 157 168 200 159 141 238 306 174 180 264 294 312 311 308 295 294 276 263 254 238 230 225
46 58 62 52 31 32 78 87 123 153 191 218 206 198 206 201 197 189 182 176 175 170 178 194 176 178 173 253 294 213 206 212 251 303 311 310 313 294 283 273 253 239 228
49 55 51 40 28 17 21 39 52 49 19 334 47 111 240 258 240 209 187 179 181 181 184 191 197 204 195 207 221 238 247 239 219 229 282 306 314 296 289 273 258 245 226
54 54 51 45 32 22 26 29 40 44 33 30 21 12 322 301 297 275 202 185 186 190 195 203 211 218 221 224 225 219 218 230 230 225 255 282 291 288 288 274 262 245 218